Location: Austin
(30.3000°N, 97.7500°W)
Time: 06:52:30
(UTC-05:00)

Cosmos 158 Rocket - Pass Details

Date: 16 June 2025
Orbit: 695 x 786 km, 74.0° (Epoch: 08 July)

Event Time Altitude Azimuth Distance (km) Brightness Sun altitude
Rises 03:26:52 0° 344° (NNW) 3,153 7.8 -29.7°
Reaches altitude 10° 03:29:14 10° 344° (NNW) 2,215 6.9 -29.4°
Enters shadow 03:32:57 51° 345° (NNW) 898 4.5 -29.0°
